Location: *
(32.8667°N, 13.1833°E)
Time: 19:48:11
(UTC+00:00)

Cosmos 44 Rocket - Pass Details

Date: 18 July 2019
Orbit: 651 x 739 km, 65.1° (Epoch: 24 August)

Event Time Altitude Azimuth Distance (km) Brightness Sun altitude
Rises 19:47:18 0° 215° (SW) 3,156 6.6 -17.1°
Reaches altitude 10° 19:49:42 10° 218° (SW) 2,234 5.9 -17.4°
Maximum altitude 19:54:46 63° 299° (WNW) 813 3.9 -18.3°
Drops below altitude 10° 19:59:48 10° 21° (NNE) 2,215 6.1 -19.0°
Sets 20:02:11 0° 25° (NNE) 3,126 6.9 -19.4°
